Погода в Братском

Россия / Тверская область     58°17′01″N   37°08′42″E
темп.,
°C
ветер,
м/с
пор.,
м/с
влажн.,
%
обл.,
%
осадки,
мм/ч
давл.,
гПа
погр.,
м
13 мая, чт
чт1300:00+12вюв119243 0.6 102112
03:00+12в25915 0.6 1020118
06:00+12юв28935 0.0 1019266
09:00+16ююв477589 0.0 1019957
12:00+18ююв475812 0.1 10191380
15:00+20юв464916 0.1 10171751
18:00+18вюв3557100 0.0 10141180
21:00+13юв3891100 0.7 1015255
14 мая, пт
пт1400:00+10ю259634 0.1 1015103
03:00+9ю2796100 0.1 1016170
06:00+10ю279485 0.0 1016256
09:00+15ю366778 0.0 1016858
12:00+18ю4651100 0.0 10161576
15:00+19ю474855 0.0 10151898
18:00+18ююв476230 0.2 1014842
21:00+14юв3892100 0.8 1013205
15 мая, сб
сб1500:00+13в289998 3.3 1011260
03:00+13вюв2798100 3.9 1010307
06:00+13вюв3798100 0.0 1009233
09:00+18ююв4118322 0.2 1008685
12:00+21ю696967 0.4 10071306
15:00+20ю5972100 2.1 10061086
18:00+19ююз510725 0.9 10051169
21:00+15ююз511834 0.9 1007861
16 мая, вс
вс1600:00+13ююз512919 0.0 1008609
03:00+12юз4119745 0.0 1009407
06:00+12юз399440 0.0 1011316
09:00+16зюз357269 0.0 1011773
12:00+19зюз236253 0.6 10121310
15:00+20сз1255100 2.1 10121497
18:00+18ююв11749 1.7 101251
21:00+13ююз22885 1.8 101428
17 мая, пн
пн1700:00+11зюз11840 0.0 101510
03:00+11ююв00825 0.0 101610
06:00+12вюв1284100 0.0 101760
09:00+17юв3472100 0.0 1017476
12:00+20юв3458100 0.0 10171263
15:00+22юв3553100 0.0 10161527
18:00+20вюв376585 0.0 1015900
21:00+16в4118593 0.0 1015343